Portada
METAR-TAF:

METAR-TAF

Aeropuertos :

Base Aérea de Valencia-Bétera

Valencia, España

latitud: 39-37-26N, longitud: 0-28-26W, altitud: 127 m

Observación

El informe se hizo hace 14 minutos, a las 19:30 UTC
Viento calma
Temperatura 10°C
Humedad 82%
Presión 1015 hPa
Visibilidad 10 km o más
sin nubes por debajo de 1500 m y sin presencia de cumulonimbus.

METAR: LEBT 211930Z AUTO 00000KT CAVOK 10/07 Q1015

Hora: 20:44 (19:44 UTC)


TAF: falta

Observaciones y pronósticos meteorológicos de más de 4000 aeropuertos (mensajes METAR y TAF).

Los puntos amarillos y rojos representan las estaciones disponibles.

Ponga el ratón en el punto deseado para ver el nombre de la estación.

Haga clic para ver las observaciones y los pronósticos meteorológicos.

Para cambiar el mapa : haga clic en los botones verdes con una cruz de color negro para hacer un zoom, en el botón verde con un guión para alejar o en las flechas verdes para mapas adyacentes.


METAR-TAF: